Hourly Data Report for November 27, 2006

TORONTO CITY
ONTARIO

43°40'00.000" N
79°24'00.000" W
112.50 m
6158355
71508
XTO

Download Data

Hourly Data (November 2006)
Hourly Data Report for November 27, 2006
TIME
LST
Temp Definition
°C
Dew Point Definition
°C
Rel Hum Definition
%
Precip. Amount Definition
mm

Wind Dir Definition
10's deg

Wind Spd Definition
km/h
Visibility Definition
km
Stn Press Definition
kPa
Hmdx Definition


Wind Chill Definition


Weather Definition


00:00 9.3 7.3 87   LegendMM LegendMM   100.97     LegendNANA
01:00 9.1 7.1 87   LegendMM LegendMM   100.94     LegendNANA
02:00 8.6 6.9 89   LegendMM LegendMM   100.95     LegendNANA
03:00 9.0 7.5 90   LegendMM LegendMM   100.97     LegendNANA
04:00 9.0 7.5 90   LegendMM LegendMM   100.93     LegendNANA
05:00 8.7 7.1 90   LegendMM LegendMM   100.93     LegendNANA
06:00 8.6 7.2 91   LegendMM LegendMM   100.94     LegendNANA
07:00 8.4 7.1 92   LegendMM LegendMM   100.92     LegendNANA
08:00 8.9 7.3 90   LegendMM LegendMM   100.98     LegendNANA
09:00 9.9 7.7 86   LegendMM LegendMM   100.99     LegendNANA
10:00 10.6 7.7 82   LegendMM LegendMM   100.98     LegendNANA
11:00 12.2 7.9 75   LegendMM LegendMM   100.98     LegendNANA
12:00 12.5 8.3 76   LegendMM LegendMM   100.87     LegendNANA
13:00 11.4 8.1 80   LegendMM LegendMM   100.83     LegendNANA
14:00 11.9 8.9 82   LegendMM LegendMM   100.79     LegendNANA
15:00 12.7 9.6 81   LegendMM LegendMM   100.76     LegendNANA
16:00 12.9 9.6 80   LegendMM LegendMM   100.82     LegendNANA
17:00 13.0 9.9 81   LegendMM LegendMM   100.86     LegendNANA
18:00 13.2 10.0 81   LegendMM LegendMM   100.89     LegendNANA
19:00 13.5 10.3 81   LegendMM LegendMM   100.90     LegendNANA
20:00 12.5 9.8 84   LegendMM LegendMM   100.94     LegendNANA
21:00 12.2 9.8 85   LegendMM LegendMM   100.97     LegendNANA
22:00 12.4 9.7 84   LegendMM LegendMM   100.97     LegendNANA
23:00 11.8 9.3 85   LegendMM LegendMM   100.97     LegendNANA

Notes on Data Quality.

Legend

  • E = Estimated
  • M = Missing
  • NA = Not Available*
  • [empty] = Indicates an unobserved value
Date modified: